Date,TemperatureHighF,TemperatureAvgF,TemperatureLowF,DewpointHighF,DewpointAvgF,DewpointLowF,HumidityHigh,HumidityAvg,HumidityLow,PressureMaxIn,PressureMinIn,WindSpeedMaxMPH,WindSpeedAvgMPH,GustSpeedMaxMPH,PrecipitationSumIn
2013-1-1,31.0,26.1,20.0,31.0,24.7,15.7,100,95,84,30.12,29.97,11,2,13,0.00
2013-1-2,23.0,16.6,7.0,16.8,13.9,7.0,100,89,76,30.31,30.10,10,1,11,0.00
2013-1-3,30.0,17.7,1.0,23.5,13.7,1.0,100,86,61,30.32,30.07,13,2,16,0.00
2013-1-4,32.0,26.5,22.0,23.7,19.8,17.5,91,76,59,30.26,30.06,19,4,23,0.01
2013-1-5,37.0,28.1,22.0,26.3,22.5,17.4,91,80,60,30.37,30.10,9,1,12,0.04
2013-1-6,37.0,33.6,31.0,34.0,29.4,25.6,100,85,74,30.19,29.90,12,2,14,0.11
2013-1-7,35.0,29.2,22.0,30.0,26.9,22.0,100,92,69,30.42,30.16,10,2,15,0.02
2013-1-8,44.0,27.6,15.0,28.7,23.1,15.0,100,86,49,30.35,30.17,10,1,11,0.07
2013-1-9,47.0,36.3,23.0,40.5,31.1,23.0,100,83,64,30.45,30.08,15,2,21,0.04
2013-1-10,43.0,32.7,21.0,35.0,27.3,21.0,100,82,59,30.62,30.22,7,1,10,0.00
2013-1-11,53.0,44.6,39.0,52.0,39.8,26.7,100,84,56,30.26,29.81,9,1,13,0.25
2013-1-12,61.0,53.7,47.0,58.7,52.0,40.7,100,94,82,29.94,29.79,10,1,13,0.01
2013-1-13,67.0,60.9,46.0,59.4,56.9,46.0,100,87,68,29.82,29.61,12,2,28,0.05
2013-1-14,56.0,32.3,24.0,45.0,28.1,21.4,100,85,71,30.39,29.72,19,2,28,0.02
2013-1-15,33.0,26.4,18.0,24.0,21.6,18.0,100,83,64,30.40,30.07,13,1,14,0.00
2013-1-16,36.0,31.2,29.0,33.0,28.3,22.1,100,90,65,30.13,29.84,12,1,13,0.08
2013-1-17,36.0,31.8,27.0,29.7,26.7,20.8,91,81,65,30.18,29.98,16,2,22,0.00
2013-1-18,33.0,24.7,15.0,23.9,16.1,9.2,99,71,49,30.51,30.14,21,4,24,0.00
2013-1-19,53.0,42.5,32.0,26.9,22.9,17.8,62,46,30,30.18,29.69,19,5,23,0.00
2013-1-20,46.0,30.3,21.0,32.4,17.6,10.3,72,59,44,30.18,29.65,22,5,30,0.00
2013-1-21,22.0,16.7,9.0,18.0,11.4,4.1,100,80,64,30.16,29.92,14,3,25,0.00
2013-1-22,12.0,6.0,2.0,8.3,2.2,-3.1,100,85,57,30.38,30.12,18,3,21,0.00
2013-1-23,14.0,7.7,2.0,11.0,5.6,0.9,100,91,68,30.38,30.16,10,1,11,0.00
2013-1-24,21.0,11.5,4.0,16.0,7.3,-0.8,100,86,41,30.64,30.15,18,2,19,0.00
2013-1-25,19.0,12.2,7.0,16.0,11.5,5.0,100,97,83,30.62,30.04,6,0,10,0.00
2013-1-26,28.0,19.8,15.0,23.3,17.3,14.0,100,91,64,30.50,30.12,11,1,17,0.04
2013-1-27,32.0,19.8,3.0,25.5,14.9,3.0,100,83,56,30.62,30.30,7,0,9,0.04
2013-1-28,48.0,38.6,27.0,46.6,38.2,25.2,100,99,93,30.30,29.90,10,2,14,0.14
2013-1-29,59.0,52.7,47.0,57.3,51.2,45.4,100,95,79,29.95,29.60,15,2,18,0.04
2013-1-30,65.0,56.9,39.0,59.7,53.2,37.7,100,88,70,29.60,29.09,25,5,27,0.30
2013-1-31,38.0,24.7,18.0,38.0,21.5,12.4,100,88,67,29.90,29.27,27,5,32,0.03
2013-2-1,18.0,13.7,11.0,14.5,9.4,5.8,95,83,68,30.37,29.89,17,4,24,0.00
2013-2-2,22.0,15.5,9.0,21.0,14.5,6.7,100,96,84,30.36,29.99,12,1,12,0.00
2013-2-3,22.0,19.1,16.0,20.0,16.4,12.1,100,90,68,30.06,29.85,13,2,16,0.01
2013-2-4,25.0,19.2,14.0,23.0,18.2,12.6,100,96,84,30.10,29.89,13,1,13,0.00
2013-2-5,29.0,23.8,21.0,26.5,22.8,19.3,100,96,81,29.97,29.82,7,0,10,0.00
2013-2-6,33.0,24.4,12.0,27.0,19.1,11.6,100,82,46,30.39,29.96,13,1,16,0.02
2013-2-7,43.0,28.2,11.0,28.5,21.9,11.0,100,79,54,30.38,29.92,9,1,10,0.05
2013-2-8,37.0,29.8,22.0,36.0,28.2,20.0,100,94,85,30.20,29.75,27,4,27,0.12
2013-2-9,33.0,23.0,15.0,21.0,18.3,14.8,100,84,51,30.44,30.20,18,3,23,0.01
2013-2-10,49.0,31.6,11.0,29.4,19.3,11.0,100,66,35,30.40,29.84,8,1,11,1.16
2013-2-11,57.0,42.7,34.0,48.2,35.8,24.2,100,78,54,29.88,29.53,26,5,29,0.01
2013-2-12,37.0,30.0,20.0,26.3,23.5,20.0,100,77,64,30.06,29.88,18,2,22,0.00
2013-2-13,36.0,25.7,17.0,30.0,23.3,17.0,100,91,72,29.98,29.67,10,1,11,0.00
2013-2-14,40.0,31.1,20.0,37.7,30.2,20.0,100,97,80,29.92,29.79,15,2,19,0.00
2013-2-15,39.0,32.3,22.0,31.1,25.6,20.5,100,77,55,30.11,29.86,11,2,20,0.01
2013-2-16,31.0,22.1,17.0,23.0,18.1,9.9,100,86,45,30.11,29.91,14,1,17,0.00
2013-2-17,24.0,16.6,5.0,18.0,10.7,5.0,100,78,52,30.35,29.99,18,3,22,0.01
2013-2-18,41.0,21.9,-1.0,30.1,13.5,-1.0,100,74,46,30.40,29.78,14,2,14,0.04
2013-2-19,45.0,32.6,17.0,40.0,29.1,15.7,100,88,57,30.00,29.59,23,5,28,0.23
2013-2-20,20.0,17.2,14.0,17.0,13.2,9.5,100,84,66,30.24,30.01,16,4,20,0.00
2013-2-21,18.0,17.6,17.0,18.0,17.3,16.3,100,99,96,30.31,30.22,10,1,10,0.00
2013-2-22,34.0,31.9,26.0,34.0,30.8,19.5,100,96,72,30.09,29.94,10,1,11,0.01
2013-2-23,41.0,34.0,26.0,37.0,31.1,24.5,100,90,68,29.97,29.80,8,1,10,0.01
2013-2-24,32.0,27.6,24.0,27.3,23.5,19.4,100,85,65,30.04,29.89,12,2,15,0.00
2013-2-25,44.0,30.0,17.0,31.0,23.7,17.0,100,80,49,30.26,30.02,10,1,12,0.00
2013-2-26,39.0,33.1,27.0,36.0,28.9,21.4,100,85,59,30.10,29.54,14,3,17,0.59
2013-2-27,43.0,36.8,32.0,40.7,36.1,32.0,100,98,85,29.65,29.51,16,2,21,0.27
2013-2-28,34.0,32.3,29.0,34.0,32.0,28.7,100,99,91,29.83,29.59,14,2,16,0.04
2013-3-1,30.0,26.7,24.0,29.0,25.0,20.7,100,93,82,30.01,29.83,14,4,19,0.00
2013-3-2,26.0,23.9,21.0,25.0,22.5,19.0,100,94,81,30.00,29.94,14,3,16,0.00
2013-3-3,28.0,22.9,21.0,24.8,21.4,18.5,100,94,78,30.04,29.92,13,2,14,0.01
2013-3-4,38.0,25.7,19.0,22.5,19.2,15.0,100,78,49,30.14,29.97,11,2,17,0.01
2013-3-5,43.0,28.1,13.0,24.6,18.9,13.0,100,73,35,30.17,29.66,12,2,15,0.00
2013-3-6,43.0,35.5,30.0,36.2,29.4,24.4,100,80,57,30.11,29.66,14,3,16,0.07
2013-3-7,43.0,34.1,29.0,35.7,31.3,27.0,100,90,64,30.31,30.11,17,3,20,0.00
2013-3-8,38.0,30.6,23.0,31.8,27.7,22.8,100,90,70,30.45,30.30,15,3,17,0.00
2013-3-9,56.0,36.3,18.0,34.5,26.4,18.0,100,72,39,30.46,30.06,7,1,8,0.00
2013-3-10,70.0,54.1,44.0,38.8,31.2,25.3,52,42,30,30.09,29.78,9,2,11,0.00
2013-3-11,61.0,52.9,43.0,50.7,39.3,32.7,100,64,39,29.82,29.55,12,2,20,0.37
2013-3-12,43.0,37.3,33.0,43.0,33.7,25.9,100,87,73,29.97,29.72,12,2,17,0.05
2013-3-13,35.0,28.9,25.0,31.0,25.5,17.2,100,88,61,30.13,29.90,17,3,24,0.01
2013-3-14,38.0,28.5,22.0,25.0,19.1,16.0,97,69,45,30.22,30.06,16,3,25,0.00
2013-3-15,45.0,34.5,22.0,37.2,28.3,21.3,100,80,59,30.16,29.75,13,2,17,0.04
2013-3-16,35.0,31.6,27.0,35.0,31.6,26.5,100,100,98,30.01,29.64,13,1,14,0.15
2013-3-17,34.0,27.8,23.0,30.0,24.3,19.8,100,88,62,30.24,30.01,8,1,10,0.00
2013-3-18,38.0,31.6,24.0,37.0,29.8,20.9,100,93,73,30.22,29.64,12,2,16,0.33
2013-3-19,40.0,32.5,27.0,40.0,26.1,17.8,100,78,59,29.96,29.64,19,4,34,0.05
2013-3-20,36.0,27.9,21.0,25.0,19.3,13.5,100,72,44,29.97,29.80,23,3,24,0.00
2013-3-21,27.0,21.4,13.0,25.0,16.9,10.2,100,83,61,29.94,29.84,14,3,17,0.00
2013-3-22,31.0,25.7,21.0,26.2,22.8,19.3,100,89,70,30.06,29.90,16,2,16,0.00
2013-3-23,42.0,30.0,17.0,33.8,23.2,17.0,100,79,50,30.07,29.93,13,2,16,0.01
2013-3-24,39.0,30.3,19.0,25.5,22.4,19.0,100,75,52,30.05,29.49,13,2,16,0.00
2013-3-25,37.0,32.1,30.0,35.0,31.5,24.3,100,98,61,29.78,29.45,15,3,17,0.19
2013-3-26,40.0,34.3,30.0,35.4,31.8,29.5,100,91,75,30.06,29.78,15,2,18,0.00
2013-3-27,42.0,35.7,31.0,34.8,30.1,25.8,100,82,54,30.11,30.02,16,2,21,0.11
2013-3-28,42.0,37.0,32.0,33.2,31.0,28.5,100,80,63,30.23,30.10,13,3,16,0.01
2013-3-29,53.0,40.5,28.0,34.1,28.1,21.7,96,66,31,30.24,30.03,13,2,17,0.00
2013-3-30,59.0,39.5,21.0,40.0,24.5,20.7,100,63,26,30.27,29.90,10,1,15,0.00
2013-3-31,50.0,45.1,39.0,48.0,36.2,21.7,100,74,43,29.97,29.61,14,2,21,0.04
2013-4-1,47.0,37.9,30.0,45.1,25.3,10.1,100,63,30,30.03,29.61,19,4,25,0.01
2013-4-2,40.0,30.1,21.0,23.8,17.2,7.6,100,62,29,30.18,30.02,18,3,21,0.00
2013-4-3,38.0,29.7,22.0,20.5,15.4,9.6,85,57,36,30.43,30.17,22,3,24,0.00
2013-4-4,57.0,34.6,13.0,24.0,14.9,8.2,100,55,15,30.45,29.85,8,1,10,0.00
2013-4-5,51.0,36.7,23.0,32.2,24.8,18.7,95,65,40,30.21,29.89,20,4,26,0.00
2013-4-6,59.0,39.3,19.0,26.7,18.2,11.3,100,53,16,30.32,29.88,10,2,14,0.00
2013-4-7,73.0,58.5,46.0,48.0,36.3,17.3,74,45,26,29.95,29.63,20,4,21,0.00
2013-4-8,73.0,55.2,33.0,52.1,43.8,33.0,100,69,41,30.04,29.67,14,2,16,0.00
2013-4-9,79.0,66.0,48.0,55.8,50.8,43.4,91,60,41,30.03,29.66,14,2,19,0.00
2013-4-10,78.0,65.1,55.0,69.7,58.1,50.7,100,80,53,29.82,29.60,19,2,32,0.73
2013-4-11,61.0,52.3,46.0,59.3,51.2,44.9,100,96,89,29.85,29.51,12,3,16,0.32
2013-4-12,59.0,50.2,40.0,58.7,46.7,32.9,100,88,63,29.83,29.37,20,3,22,0.33
2013-4-13,46.0,41.8,33.0,37.3,33.5,28.4,90,72,61,30.04,29.82,14,3,19,0.00
2013-4-14,61.0,43.9,27.0,38.6,32.8,27.0,100,69,38,30.12,29.87,10,1,11,0.00
2013-4-15,71.0,59.1,47.0,51.1,45.0,35.9,81,60,43,29.99,29.83,14,2,20,0.00
2013-4-16,76.0,60.2,50.0,59.1,53.4,48.1,100,80,55,30.11,29.82,18,3,26,0.05
2013-4-17,71.0,57.1,47.0,54.7,45.5,39.6,100,69,37,30.20,29.95,11,2,14,0.01
2013-4-18,85.0,71.5,58.0,61.9,57.9,53.8,100,67,38,29.98,29.50,17,2,25,0.00
2013-4-19,73.0,57.1,40.0,63.5,46.6,28.8,100,69,50,29.83,29.32,21,5,23,0.12
2013-4-20,44.0,38.4,29.0,32.4,26.8,21.1,93,64,42,30.42,29.83,19,4,27,0.00
2013-4-21,53.0,37.3,21.0,30.1,23.8,20.7,100,64,31,30.59,30.32,11,2,18,0.00
2013-4-22,66.0,50.1,33.0,38.1,29.4,24.0,77,47,29,30.44,30.06,11,2,15,0.00
2013-4-23,74.0,56.8,40.0,39.3,35.0,27.5,75,46,25,30.20,29.79,9,1,13,0.00
2013-4-24,60.0,50.2,37.0,59.0,45.7,35.6,100,87,43,30.14,29.60,21,2,26,0.46
2013-4-25,56.0,42.2,29.0,42.9,34.6,28.7,100,79,38,30.32,30.04,19,2,24,0.01
2013-4-26,64.0,45.1,28.0,45.6,32.1,28.0,100,67,29,30.45,30.18,8,1,12,0.01
2013-4-27,75.0,54.4,31.0,42.3,35.1,30.2,100,57,22,30.38,29.96,8,0,10,0.00
2013-4-28,60.0,54.3,49.0,55.0,48.1,37.1,100,82,44,30.04,29.83,8,1,11,0.00
2013-4-29,68.0,56.5,52.0,59.4,55.1,50.7,100,95,67,29.92,29.77,9,1,10,0.00
2013-4-30,76.0,61.3,47.0,58.4,51.9,45.4,97,74,46,30.06,29.85,8,1,9,0.01
2013-5-1,80.0,65.1,52.0,54.7,50.4,36.1,97,63,37,30.18,29.99,7,1,8,0.00
2013-5-2,79.0,64.8,51.0,48.4,37.5,29.5,60,38,18,30.25,29.95,7,1,8,0.00
2013-5-3,79.0,64.4,50.0,45.2,40.4,34.1,68,43,25,30.16,29.89,10,1,11,0.00
2013-5-4,73.0,60.5,48.0,45.2,41.3,35.4,79,51,27,30.14,29.89,10,2,12,0.00
2013-5-5,76.0,60.4,42.0,44.1,36.5,26.8,93,46,18,30.10,29.78,11,2,15,0.00
2013-5-6,74.0,60.5,42.0,53.8,44.2,30.8,84,56,38,30.04,29.77,9,1,12,0.00
2013-5-7,75.0,62.7,53.0,60.8,54.9,49.8,98,78,46,29.94,29.76,9,1,11,0.00
2013-5-8,75.0,63.8,56.0,58.9,54.5,47.7,96,74,42,29.88,29.72,12,2,16,0.01
2013-5-9,80.0,64.7,54.0,60.0,52.0,40.5,100,69,27,29.88,29.70,8,0,13,0.00
2013-5-10,75.0,62.3,52.0,63.1,57.7,49.5,100,86,55,29.90,29.63,12,1,17,0.26
2013-5-11,60.0,52.6,47.0,60.0,49.8,44.5,100,90,79,29.78,29.64,11,1,12,0.04
2013-5-12,52.0,44.3,32.0,49.9,33.0,25.7,100,68,38,30.04,29.74,16,2,20,0.03
2013-5-13,53.0,41.7,29.0,36.0,27.9,19.8,100,63,30,30.18,30.00,21,2,26,0.00
2013-5-14,67.0,46.1,27.0,43.2,34.5,26.2,100,68,36,30.20,29.75,10,1,11,0.00
2013-5-15,85.0,67.4,48.0,61.7,51.8,38.5,86,59,36,29.80,29.45,11,1,16,0.00
2013-5-16,82.0,68.3,53.0,58.7,47.7,37.8,100,55,23,29.90,29.62,10,0,12,0.00
2013-5-17,82.0,63.9,44.0,58.0,47.4,40.5,99,60,27,30.03,29.79,9,0,12,0.00
2013-5-18,86.0,67.3,48.0,61.9,50.9,43.6,96,60,31,30.05,29.75,5,0,7,0.00
2013-5-19,84.0,70.8,59.0,64.7,61.8,56.9,100,76,50,29.97,29.72,5,0,9,0.00
2013-5-20,91.0,73.8,57.0,69.6,63.4,53.5,99,73,42,29.90,29.60,5,0,8,0.00
2013-5-21,89.0,76.6,66.0,70.7,65.0,60.7,95,70,42,29.78,29.51,7,0,13,0.00
2013-5-22,88.0,75.6,64.0,67.6,63.6,58.8,92,69,40,29.71,29.44,10,1,13,0.00
2013-5-23,78.0,64.4,45.0,66.0,58.4,43.9,97,82,49,29.90,29.52,15,2,19,0.20
2013-5-24,45.0,42.6,41.0,44.5,41.5,38.6,99,96,92,30.08,29.90,18,5,19,0.00
2013-5-25,62.0,53.1,38.0,43.9,34.9,29.7,98,52,36,30.28,30.09,18,4,23,0.13
2013-5-26,67.0,49.9,31.0,42.7,34.6,30.0,100,62,28,30.29,30.04,15,2,19,0.00
2013-5-27,65.0,51.5,33.0,51.2,41.0,31.2,97,70,40,30.26,29.98,8,0,8,0.00
2013-5-28,82.0,66.2,52.0,68.7,59.2,46.3,100,80,54,30.00,29.69,8,1,12,0.24
2013-5-29,88.0,76.0,67.0,64.9,61.6,57.8,80,63,42,29.91,29.74,10,1,12,0.00
2013-5-30,91.0,75.5,61.0,68.1,62.0,56.5,94,67,35,30.00,29.78,4,0,5,0.00
2013-5-31,91.0,75.3,60.0,67.6,62.3,56.1,100,68,39,29.96,29.66,10,0,14,0.06
2013-6-1,88.0,74.8,64.0,69.1,65.1,59.1,98,73,50,29.85,29.57,15,1,18,0.01
2013-6-2,80.0,71.5,64.0,68.6,61.2,55.7,92,71,48,29.74,29.56,12,2,20,0.24
2013-6-3,69.0,58.6,44.0,59.7,48.4,37.4,94,71,42,30.03,29.74,18,4,18,0.00
2013-6-4,73.0,56.5,38.0,51.7,44.1,35.6,94,67,41,30.10,29.88,15,2,15,0.00
2013-6-5,85.0,64.7,44.0,58.7,49.6,41.5,100,63,31,30.09,29.67,10,1,11,0.00
2013-6-6,68.0,63.8,58.0,65.9,60.6,53.3,96,89,73,29.80,29.61,8,1,10,1.33
2013-6-7,63.0,57.9,55.0,59.1,55.9,53.4,100,93,85,29.76,29.64,13,3,17,0.00
2013-6-8,76.0,62.6,54.0,58.9,54.5,50.8,96,77,46,30.01,29.75,9,0,10,0.00
2013-6-9,81.0,66.3,51.0,64.5,56.8,47.6,99,74,48,30.04,29.78,6,0,8,0.00
2013-6-10,75.0,68.2,62.0,70.2,65.0,58.1,96,90,77,29.83,29.56,8,1,12,0.17
2013-6-11,78.0,68.0,61.0,66.2,62.2,58.4,100,83,58,29.74,29.61,15,1,15,0.02
2013-6-12,82.0,71.5,60.0,71.2,63.7,56.1,99,78,50,29.77,29.55,5,0,7,0.00
2013-6-13,71.0,64.0,56.0,69.4,61.9,54.3,100,93,80,29.72,29.37,16,2,21,0.83
2013-6-14,73.0,60.9,52.0,62.9,55.2,49.2,99,83,57,29.97,29.72,13,2,14,0.00
2013-6-15,83.0,64.7,45.0,60.6,50.0,42.3,95,65,29,30.03,29.76,5,0,6,0.00
2013-6-16,81.0,68.3,61.0,68.9,63.5,58.0,100,85,63,29.86,29.63,8,1,11,0.15
2013-6-17,85.0,70.6,61.0,70.2,59.4,51.8,94,72,34,29.82,29.65,7,0,7,0.00
2013-6-18,78.0,67.4,59.0,64.3,59.2,49.6,94,76,57,29.88,29.64,19,3,20,0.00
2013-6-19,77.0,63.1,47.0,52.9,49.3,44.8,100,65,37,30.06,29.84,13,1,14,0.00
2013-6-20,84.0,66.4,46.0,65.7,51.0,43.2,93,64,32,30.14,29.91,7,0,8,0.00
2013-6-21,90.0,71.4,51.0,67.6,55.9,48.2,95,64,33,30.16,29.87,4,0,4,0.00
2013-6-22,92.0,75.3,57.0,69.4,62.5,52.9,98,68,38,30.04,29.77,7,0,8,0.00
2013-6-23,93.0,78.4,66.0,73.8,65.7,61.0,96,68,39,29.98,29.74,6,0,10,0.00
2013-6-24,92.0,78.7,66.0,67.3,64.9,62.5,95,66,41,29.95,29.68,7,0,9,0.00
2013-6-25,91.0,74.4,65.0,71.7,67.3,60.0,100,80,49,29.86,29.62,19,1,25,0.87
2013-6-26,86.0,72.7,65.0,72.5,66.2,60.4,98,81,59,29.79,29.53,8,0,11,0.43
2013-6-27,77.0,69.1,64.0,71.5,65.2,59.4,100,87,77,29.64,29.44,14,1,17,0.51
2013-6-28,85.0,69.4,62.0,71.2,63.4,57.1,100,82,51,29.51,29.23,11,0,14,0.20
2013-6-29,85.0,69.6,59.0,66.1,61.5,55.1,99,78,46,29.55,29.30,7,1,12,0.01
2013-6-30,81.0,68.8,60.0,68.8,62.3,55.2,99,81,59,29.74,29.52,11,1,15,0.29
2013-7-1,77.0,68.1,63.0,70.0,63.1,57.4,100,84,69,29.82,29.67,9,1,12,0.03
2013-7-2,86.0,73.0,64.0,70.5,64.8,58.4,98,77,53,29.90,29.72,5,0,6,0.01
2013-7-3,90.0,75.2,66.0,72.2,65.7,59.3,100,74,49,30.00,29.81,5,0,9,0.00
2013-7-4,86.0,74.3,66.0,73.5,66.3,59.3,95,77,57,30.01,29.87,7,0,9,0.00
2013-7-5,85.0,74.0,67.0,72.8,67.1,60.3,100,80,59,29.97,29.82,10,0,11,0.00
2013-7-6,93.0,75.8,66.0,76.1,67.6,59.0,99,77,48,29.99,29.72,4,0,6,0.00
2013-7-7,85.0,74.0,67.0,72.7,66.7,61.0,100,79,55,29.92,29.73,8,0,8,0.00
2013-7-8,90.0,73.7,62.0,71.1,64.3,55.4,96,74,46,29.95,29.74,6,0,14,0.00
2013-7-9,90.0,74.4,67.0,75.8,67.1,59.6,100,79,56,29.93,29.64,6,0,13,0.04
2013-7-10,70.0,69.5,68.0,69.7,62.9,60.9,99,80,76,29.81,29.75,7,0,8,0.07
2013-7-11,73.0,66.0,59.0,58.7,56.6,54.9,91,73,56,29.91,29.78,10,1,11,0.03
2013-7-12,80.0,68.3,54.0,64.9,58.3,48.6,95,72,51,29.97,29.81,10,1,15,0.00
2013-7-13,86.0,72.0,58.0,68.7,63.0,52.5,92,75,52,30.07,29.88,7,0,10,0.01
2013-7-14,94.0,82.9,66.0,73.8,69.0,60.3,96,65,44,30.10,29.91,6,0,7,0.00
2013-7-15,95.0,79.0,67.0,76.8,68.4,59.6,97,72,45,30.15,29.93,3,0,5,0.02
2013-7-16,94.0,79.0,70.0,78.8,70.8,62.8,92,77,51,30.12,29.95,9,0,12,0.01
2013-7-17,93.0,80.5,70.0,78.1,70.9,62.8,99,74,49,30.10,29.84,7,0,9,0.00
2013-7-18,97.0,82.4,70.0,78.5,70.8,62.5,96,70,47,30.00,29.70,10,0,11,0.00
2013-7-19,95.0,80.6,71.0,75.8,70.9,63.8,99,74,47,29.83,29.54,11,0,17,0.00
2013-7-20,84.0,74.4,67.0,73.4,68.3,61.0,98,82,60,29.76,29.58,19,0,19,0.21
2013-7-21,88.0,74.8,66.0,73.8,65.7,59.0,100,74,50,29.78,29.65,10,0,12,0.00
2013-7-22,78.0,68.9,63.0,73.2,64.8,56.4,99,87,77,29.80,29.60,4,0,5,0.05
2013-7-23,87.0,70.8,64.0,70.1,63.1,57.0,99,78,51,29.62,29.41,22,0,29,0.01
2013-7-24,71.0,63.3,52.0,64.9,55.5,49.8,95,77,55,29.92,29.61,15,3,16,0.00
2013-7-25,77.0,62.2,47.0,56.2,50.7,41.8,98,69,41,29.98,29.80,11,1,13,0.00
2013-7-26,85.0,67.6,50.0,68.7,54.6,45.0,100,67,37,30.00,29.71,7,0,9,0.00
2013-7-27,77.0,65.6,58.0,69.0,62.1,53.2,100,89,67,29.86,29.62,6,0,9,0.00
2013-7-28,76.0,64.0,53.0,62.7,54.9,50.5,100,74,46,29.92,29.70,8,1,12,0.00
2013-7-29,76.0,62.5,51.0,61.0,53.5,46.7,100,75,42,30.08,29.83,10,1,13,0.00
2013-7-30,82.0,65.4,50.0,67.3,55.0,46.3,100,72,44,30.13,29.88,6,0,9,0.00
2013-7-31,77.0,64.8,54.0,70.7,60.7,49.6,100,87,64,30.04,29.79,5,0,5,0.00
2013-8-1,83.0,70.2,59.0,68.7,61.4,55.5,100,75,50,29.80,29.61,10,1,15,0.00
2013-8-2,77.0,66.4,57.0,67.4,57.6,51.9,100,75,48,29.83,29.70,8,0,11,0.00
2013-8-3,80.0,69.3,56.0,69.2,58.8,49.7,100,72,39,29.89,29.69,12,1,17,0.00
2013-8-4,74.0,63.7,54.0,63.3,54.9,49.9,99,75,47,29.99,29.84,13,1,20,0.00
2013-8-5,77.0,62.3,48.0,61.0,52.7,44.6,100,74,42,30.05,29.80,7,0,9,0.00
2013-8-6,83.0,68.3,53.0,68.0,56.1,49.2,100,69,42,29.92,29.70,7,0,8,0.34
2013-8-7,85.0,68.0,58.0,74.7,63.6,54.2,99,86,61,29.86,29.66,26,0,26,1.07
2013-8-8,89.0,72.3,66.0,77.0,67.3,60.0,100,85,59,29.80,29.62,8,0,9,0.10
2013-8-9,83.0,70.4,59.0,72.2,63.8,56.1,100,81,54,29.90,29.67,10,0,10,0.11
2013-8-10,83.0,68.7,57.0,66.3,57.9,51.6,100,70,46,29.95,29.80,10,1,11,0.00
2013-8-11,86.0,70.1,60.0,64.8,60.5,56.5,100,74,44,30.00,29.76,5,0,8,0.05
2013-8-12,86.0,70.0,58.0,71.2,62.7,52.9,100,80,48,29.94,29.69,12,0,16,0.05
2013-8-13,76.0,67.9,52.0,69.1,60.8,49.3,98,79,56,29.90,29.62,16,2,19,0.00
2013-8-14,71.0,57.8,49.0,58.7,50.7,46.4,100,79,50,30.07,29.87,12,1,15,0.01
2013-8-15,78.0,60.2,44.0,63.5,48.6,40.7,99,70,34,30.12,29.86,7,0,7,0.00
2013-8-16,80.0,63.2,50.0,60.6,51.7,46.3,99,70,36,30.06,29.88,11,1,15,0.00
2013-8-17,82.0,66.4,52.0,61.3,55.8,48.6,100,72,42,30.14,29.92,6,0,7,0.00
2013-8-18,79.0,67.0,57.0,65.9,60.8,53.5,99,82,58,30.08,29.92,4,0,6,0.00
2013-8-19,85.0,70.1,60.0,68.6,62.4,55.8,98,79,44,29.99,29.79,7,0,9,0.00
2013-8-20,89.0,70.2,55.0,68.6,59.0,50.3,96,71,40,30.05,29.82,8,0,8,0.00
2013-8-21,90.0,72.4,57.0,71.5,61.0,52.2,97,71,40,30.06,29.77,3,0,3,0.00
2013-8-22,86.0,73.8,63.0,71.7,67.0,60.0,98,81,58,29.93,29.68,12,0,12,0.00
2013-8-23,84.0,71.6,58.0,69.4,60.9,50.2,100,73,39,30.06,29.79,15,1,16,0.00
2013-8-24,85.0,66.0,49.0,60.4,53.6,46.2,97,69,33,30.19,29.96,10,0,10,0.00
2013-8-25,88.0,68.6,51.0,68.8,56.9,46.7,100,70,40,30.25,29.94,7,0,9,0.00
2013-8-26,88.0,73.6,60.0,71.1,63.3,58.9,100,74,44,30.10,29.75,10,0,13,0.10
2013-8-27,83.0,73.5,68.0,73.8,68.8,62.0,100,86,62,29.83,29.66,9,0,18,0.03
2013-8-28,83.0,72.4,69.0,76.2,68.3,62.9,100,87,78,29.78,29.57,10,1,16,1.67
2013-8-29,87.0,74.9,67.0,72.8,66.9,61.7,95,78,51,29.86,29.71,9,0,9,0.00
2013-8-30,91.0,75.0,62.0,75.1,64.9,55.8,98,73,48,29.86,29.55,8,0,8,0.00
2013-8-31,91.0,78.1,70.0,73.2,70.0,66.2,98,79,46,29.67,29.46,10,1,14,0.00
2013-9-1,86.0,74.1,66.0,76.1,67.9,60.7,99,82,63,29.67,29.49,6,0,9,0.00
2013-9-2,89.0,72.3,62.0,74.8,66.5,59.3,100,83,54,29.71,29.47,9,0,10,0.03
2013-9-3,69.0,62.0,54.0,61.7,57.8,50.8,99,87,65,29.94,29.71,9,1,13,0.00
2013-9-4,82.0,64.4,49.0,64.3,54.2,45.3,99,72,41,30.00,29.76,7,0,11,0.00
2013-9-5,74.0,63.4,48.0,63.4,53.7,45.0,100,74,39,30.13,29.91,15,2,19,0.00
2013-9-6,76.0,57.6,41.0,56.1,45.5,37.1,99,69,29,30.21,29.90,6,0,9,0.00
2013-9-7,84.0,64.4,45.0,65.5,53.3,41.1,100,72,35,30.04,29.67,6,0,8,0.00
2013-9-8,77.0,66.6,53.0,69.9,61.3,51.0,100,84,62,29.97,29.74,12,2,16,0.02
2013-9-9,84.0,64.3,49.0,73.8,59.5,44.7,100,85,62,29.99,29.75,9,0,10,0.83
2013-9-10,94.0,78.8,68.0,78.1,70.6,62.0,100,78,51,29.90,29.71,6,0,8,0.01
2013-9-11,93.0,80.1,72.0,77.1,73.0,69.1,100,82,48,29.93,29.67,5,0,10,0.00
2013-9-12,74.0,68.2,58.0,73.1,65.6,54.8,100,92,83,29.80,29.62,11,0,19,0.98
2013-9-13,62.0,56.4,50.0,59.4,51.5,45.6,100,84,62,29.96,29.72,21,2,21,0.23
2013-9-14,51.0,48.5,43.0,50.2,46.4,41.1,97,92,87,30.06,29.95,5,1,10,0.00
2013-9-16,70.0,60.5,49.0,59.7,53.5,47.6,99,79,59,30.24,29.98,17,3,19,0.05
2013-9-17,72.0,52.9,38.0,49.8,42.8,35.0,100,73,32,30.36,30.03,6,0,6,0.00
2013-9-18,79.0,57.2,40.0,58.4,49.3,36.2,100,78,45,30.19,29.83,5,0,8,0.00
2013-9-19,75.0,64.4,56.0,66.2,61.2,54.2,99,90,68,30.00,29.82,7,0,7,0.00
2013-9-20,79.0,67.2,57.0,74.2,63.9,51.9,100,89,79,29.92,29.61,9,1,10,0.00
2013-9-21,70.0,63.1,53.0,68.1,61.8,50.7,100,95,91,29.70,29.50,8,0,11,0.59
2013-9-22,64.0,55.4,51.0,55.0,49.6,43.3,100,82,49,29.94,29.70,13,2,15,0.00
2013-9-23,59.0,51.6,39.0,51.5,46.5,37.7,100,84,61,30.08,29.94,9,1,11,0.00
2013-9-24,71.0,51.2,36.0,51.6,44.3,33.4,100,80,47,30.10,29.76,9,1,10,0.00
2013-9-25,77.0,56.2,42.0,57.7,47.9,38.4,100,78,38,29.94,29.63,7,0,8,0.00
2013-9-26,76.0,57.6,40.0,58.4,48.2,37.0,100,75,37,30.02,29.77,8,1,11,0.00
2013-9-27,75.0,57.1,43.0,55.5,49.0,39.4,100,77,44,30.12,29.90,11,1,15,0.00
2013-9-28,78.0,59.5,43.0,64.5,51.2,39.4,100,77,45,30.18,29.86,4,0,6,0.00
2013-9-29,76.0,61.0,50.0,61.3,55.6,49.6,100,84,57,30.04,29.78,8,0,8,0.00
2013-9-30,71.0,61.2,54.0,66.0,56.9,49.9,100,86,69,29.92,29.80,6,0,8,0.00
2013-10-1,80.0,63.2,52.0,68.0,56.2,47.6,100,80,50,29.94,29.72,10,0,10,0.00
2013-10-2,84.0,67.5,56.0,68.9,60.0,51.2,100,79,49,29.96,29.75,5,0,8,0.00
2013-10-3,83.0,65.4,55.0,75.1,61.3,50.3,100,87,63,29.97,29.72,7,0,7,0.34
2013-10-4,87.0,68.4,63.0,73.2,61.9,56.7,100,81,49,29.93,29.72,8,0,10,0.19
2013-10-5,79.0,67.9,62.0,75.7,64.2,56.5,100,88,76,29.93,29.79,5,0,9,0.21
2013-10-6,84.0,71.3,65.0,72.5,63.2,59.0,100,77,51,29.82,29.49,8,0,14,0.01
2013-10-7,68.0,54.7,49.0,65.8,49.7,43.7,100,84,61,30.02,29.56,10,2,16,0.30
2013-10-8,68.0,52.0,40.0,54.0,45.0,36.7,100,80,47,30.23,30.01,11,1,12,0.00
2013-10-9,73.0,51.6,36.0,52.4,42.4,33.4,100,74,38,30.29,29.99,5,0,6,0.00
2013-10-10,73.0,48.7,39.0,47.0,42.1,36.6,100,82,38,30.18,29.87,4,0,7,0.00
2013-10-11,72.0,55.6,43.0,56.8,48.9,41.7,100,81,44,30.04,29.82,6,0,9,0.00
2013-10-12,78.0,61.3,47.0,63.0,55.1,44.5,100,82,57,30.04,29.80,6,0,7,0.00
2013-10-13,74.0,64.0,59.0,63.9,60.1,56.1,100,88,58,30.13,30.00,6,0,8,0.11
2013-10-14,69.0,58.2,45.0,59.0,52.0,43.4,100,81,55,30.22,30.00,12,2,16,0.07
2013-10-15,68.0,57.0,43.0,62.8,54.3,41.4,100,91,73,30.18,29.82,7,0,9,0.00
2013-10-16,66.0,59.9,50.0,64.0,59.2,49.5,100,97,90,29.83,29.66,10,1,13,0.28
2013-10-17,62.0,49.5,41.0,58.0,47.0,37.1,100,91,68,29.86,29.61,8,0,9,0.19
2013-10-18,63.0,50.9,41.0,48.1,44.5,39.9,100,82,44,29.92,29.75,11,1,14,0.00
2013-10-19,56.0,46.0,39.0,50.0,43.9,38.7,100,93,72,29.89,29.59,9,1,14,0.05
2013-10-20,59.0,46.1,37.0,42.7,39.9,37.0,100,81,49,29.94,29.80,10,1,15,0.00
2013-10-21,66.0,52.1,38.0,48.3,39.9,36.5,100,67,35,29.98,29.67,13,2,17,0.00
2013-10-22,54.0,43.8,35.0,50.0,36.3,27.5,100,78,41,29.92,29.72,11,1,15,0.13
2013-10-23,42.0,37.8,32.0,42.0,35.5,30.5,100,92,67,29.90,29.70,10,0,16,0.08
2013-10-24,45.0,35.2,30.0,35.6,31.9,29.1,100,89,58,30.12,29.89,17,1,18,0.00
2013-10-25,50.0,38.0,31.0,39.6,32.8,28.5,100,84,50,30.26,30.11,11,1,15,0.02
2013-10-26,46.0,39.3,32.0,39.1,30.0,26.5,100,71,47,30.21,29.79,14,2,21,0.01
2013-10-27,52.0,39.7,32.0,40.5,34.0,29.3,100,83,46,30.03,29.92,10,1,14,0.00
2013-10-30,64.0,64.0,64.0,45.5,45.5,45.5,51,51,51,29.96,29.96,2,2,2,0.00
2013-10-31,66.0,60.0,55.0,62.0,57.9,53.9,100,93,66,29.94,29.26,24,3,24,0.14
2013-11-1,66.0,56.0,49.0,61.0,48.5,41.5,100,77,55,29.61,29.15,18,3,31,0.08
2013-11-2,52.0,45.7,41.0,48.9,44.4,40.0,100,96,78,29.92,29.59,14,1,16,0.06
2013-11-3,47.0,37.4,25.0,42.0,32.5,24.5,100,84,55,30.47,29.92,14,2,16,0.01
2013-11-4,45.0,33.9,21.0,26.3,22.9,18.5,100,68,37,30.55,30.32,7,1,10,0.00
2013-11-5,64.0,47.2,38.0,39.9,32.4,25.1,72,57,36,30.40,30.17,8,0,8,0.00
2013-11-6,70.0,54.6,37.0,58.2,45.5,29.4,100,72,53,30.26,29.76,21,2,21,0.05
2013-11-7,58.0,43.0,38.0,58.0,38.2,25.9,100,84,59,30.06,29.75,14,2,20,0.25
2013-11-8,42.0,35.7,25.0,34.1,29.5,25.0,100,79,59,30.28,30.02,16,2,16,0.00
2013-11-9,57.0,42.9,24.0,36.3,30.0,24.0,100,66,33,30.28,29.77,16,3,20,0.00
2013-11-10,53.0,44.1,37.0,39.9,32.8,27.5,77,64,54,30.22,29.82,19,3,23,0.00
2013-11-11,47.0,38.1,28.0,39.0,31.6,28.0,100,80,48,30.25,29.93,17,2,22,0.05
2013-11-12,34.0,28.6,25.0,30.0,26.4,21.1,100,92,65,30.46,30.11,16,3,19,0.05
2013-11-13,37.0,28.6,22.0,25.0,23.5,20.5,100,83,54,30.50,30.32,13,2,13,0.01
2013-11-16,47.0,47.0,47.0,45.4,45.4,45.4,94,94,94,30.10,30.10,1,1,1,0.00
2013-11-17,61.0,57.5,52.0,59.2,56.5,50.0,100,96,93,29.81,29.35,19,4,28,0.35
2013-11-18,51.0,43.7,36.0,39.2,32.4,26.5,83,65,52,30.04,29.65,19,6,24,0.01
2013-11-19,37.0,33.1,22.0,27.2,24.9,21.1,100,72,59,30.43,30.01,14,2,20,0.00
2013-11-20,48.0,32.2,17.0,25.0,18.0,13.2,100,63,28,30.49,30.22,10,1,11,0.00
2013-11-21,46.0,38.6,32.0,41.9,31.3,14.4,99,77,47,30.36,30.13,6,0,7,0.09
2013-11-22,51.0,45.1,35.0,50.5,44.1,32.6,100,96,82,30.24,29.98,18,2,24,0.07
2013-11-23,35.0,26.9,17.0,33.2,23.6,8.6,100,88,64,30.38,30.12,23,3,24,0.00
2013-11-24,23.0,17.0,10.0,20.0,12.1,8.2,100,81,63,30.56,30.38,18,2,22,0.00
2013-11-25,33.0,23.0,11.0,29.2,14.2,10.0,100,72,45,30.53,30.14,16,1,18,0.00
2013-11-26,33.0,30.4,29.0,33.0,30.4,24.3,100,100,100,30.20,29.78,8,0,10,0.00
2013-11-27,31.0,25.7,20.0,30.0,25.2,18.9,100,98,82,30.14,29.74,10,0,11,0.00
2013-11-28,24.0,19.6,12.0,23.0,18.4,12.0,100,96,80,30.43,30.11,8,0,10,0.00
2013-11-29,30.0,18.9,12.0,28.0,18.6,12.0,100,99,81,30.63,30.42,4,0,5,0.00
2013-12-11,21.0,18.1,15.0,18.5,13.6,11.2,90,82,69,30.35,30.27,11,2,16,0.00
2013-12-13,32.0,24.0,16.0,22.3,16.0,9.9,99,72,54,30.27,30.13,10,1,13,0.00
2013-12-14,33.0,28.5,23.0,33.0,27.5,19.6,100,96,83,30.26,29.62,6,0,8,0.00
2013-12-15,35.0,24.6,14.0,34.0,23.5,12.4,100,96,81,30.08,29.60,19,4,21,0.17
2013-12-16,28.0,17.3,10.0,20.8,12.7,9.5,100,83,54,30.20,30.03,10,1,14,0.01
2013-12-17,28.0,24.6,20.0,28.0,23.4,18.3,100,95,76,30.07,29.90,9,1,13,0.02
2013-12-18,28.0,24.1,20.0,25.0,21.4,17.8,100,90,70,30.18,30.02,14,2,17,0.00
2013-12-19,46.0,37.0,25.0,35.0,26.8,18.5,92,67,52,30.08,29.92,12,2,17,0.25
2013-12-20,54.0,47.3,42.0,54.0,41.1,28.9,100,80,52,29.93,29.73,12,3,18,0.10
2013-12-21,60.0,55.8,51.0,56.0,52.5,49.2,100,89,80,29.74,29.43,12,3,16,1.25
2013-12-22,67.0,57.0,44.0,62.9,51.4,42.4,99,82,61,29.90,29.32,19,4,24,0.50
2013-12-23,44.0,34.7,28.0,43.7,30.1,19.4,100,84,67,30.28,29.88,17,2,18,0.02
2013-12-24,29.0,18.8,9.0,24.0,15.0,9.0,100,85,68,30.56,30.24,14,2,17,0.00
2013-12-25,26.0,17.6,7.0,25.0,14.0,7.0,100,87,66,30.56,30.18,9,1,10,0.00
2013-12-26,33.0,27.3,19.0,29.2,23.3,17.1,100,86,62,30.36,30.08,14,2,19,0.00
2013-12-27,42.0,32.9,21.0,29.8,25.3,19.0,95,74,58,30.35,30.16,9,1,12,0.00
2013-12-28,53.0,42.2,35.0,33.8,29.5,26.2,74,61,43,30.20,29.94,11,3,15,0.00
2013-12-29,42.0,39.7,34.0,41.0,34.2,25.2,100,83,53,29.98,29.65,13,1,18,0.12
2013-12-30,37.0,20.9,17.0,33.0,19.2,13.0,100,93,77,30.24,29.79,19,3,22,0.01
2013-12-31,20.0,18.0,11.0,20.0,16.0,10.8,100,92,70,30.35,30.07,17,2,24,0.00
2014-1-1,25.0,20.7,17.0,23.0,20.3,17.0,100,98,90,30.36,30.11,7,0,9,0.00
2014-1-2,21.0,16.8,8.0,21.0,16.8,8.0,100,100,100,30.12,29.80,23,5,26,0.00